• In Belgien
  • Länderverzeichnis
  • Für 7 Tage
  • Wassertemperatur
  • Satellitenkarten
  • Wetterkarte
  • Widgets
  • user-avatar
    Anmelden

    Stündliche Wetter Roza

    Heute, 20 Juli, Freitag

    Zeit Temperatur Niederschläge Wind Luftdruck Luftfeuchtigkeit
    00:00 +18°C° 0 mm 4 m/S 728 mmHg 93%
    01:00 +17°C° 0 mm 4 m/S 728 mmHg 95%
    02:00 +17°C° 0 mm 3 m/S 728 mmHg 96%
    03:00 +17°C° 0 mm 4 m/S 728 mmHg 96%
    04:00 +17°C° 0 mm 4 m/S 728 mmHg 96%
    05:00 +17°C° 0 mm 4 m/S 728 mmHg 96%
    06:00 +18°C° 0 mm 4 m/S 728 mmHg 94%
    07:00 +18°C° 0 mm 4 m/S 728 mmHg 91%
    08:00 +19°C° 0 mm 4 m/S 728 mmHg 88%
    09:00 +20°C° 0,2 mm 5 m/S 728 mmHg 84%
    10:00 +22°C° 0,2 mm 5 m/S 729 mmHg 79%
    11:00 +23°C° 0,2 mm 5 m/S 729 mmHg 74%
    12:00 +23°C° 0,5 mm 5 m/S 729 mmHg 72%
    13:00 +24°C° 0,5 mm 6 m/S 729 mmHg 70%
    14:00 +26°C° 0,5 mm 6 m/S 728 mmHg 68%
    15:00 +24°C° 0,3 mm 6 m/S 728 mmHg 68%
    16:00 +24°C° 0,3 mm 6 m/S 728 mmHg 69%
    17:00 +25°C° 0,3 mm 5 m/S 728 mmHg 69%
    18:00 +23°C° 0,1 mm 5 m/S 728 mmHg 73%
    19:00 +22°C° 0,1 mm 4 m/S 728 mmHg 77%
    20:00 +21°C° 0,1 mm 3 m/S 728 mmHg 81%
    21:00 +20°C° 0 mm 3 m/S 728 mmHg 84%
    22:00 +19°C° 0 mm 3 m/S 728 mmHg 86%
    23:00 +18°C° 0 mm 3 m/S 729 mmHg 88%

    Morgen, 21 Juli, Samstag

    Zeit Temperatur Niederschläge Wind Luftdruck Luftfeuchtigkeit
    00:00 +18°C° 0,1 mm 3 m/S 729 mmHg 90%
    01:00 +17°C° 0,1 mm 3 m/S 729 mmHg 92%
    02:00 +17°C° 0,1 mm 3 m/S 729 mmHg 94%
    03:00 +17°C° 0 mm 3 m/S 729 mmHg 95%
    04:00 +16°C° 0 mm 3 m/S 729 mmHg 96%
    05:00 +16°C° 0 mm 3 m/S 729 mmHg 97%
    06:00 +17°C° 0 mm 3 m/S 729 mmHg 94%
    07:00 +18°C° 0 mm 3 m/S 729 mmHg 90%
    08:00 +20°C° 0 mm 3 m/S 730 mmHg 87%
    09:00 +21°C° 0,1 mm 4 m/S 730 mmHg 81%
    10:00 +22°C° 0,1 mm 4 m/S 730 mmHg 75%
    11:00 +23°C° 0,1 mm 4 m/S 730 mmHg 69%
    12:00 +25°C° 0,2 mm 4 m/S 730 mmHg 66%
    13:00 +26°C° 0,2 mm 4 m/S 730 mmHg 63%
    14:00 +26°C° 0,2 mm 4 m/S 729 mmHg 61%
    15:00 +26°C° 0,5 mm 3 m/S 729 mmHg 63%
    16:00 +26°C° 0,5 mm 3 m/S 729 mmHg 65%
    17:00 +25°C° 0,5 mm 3 m/S 729 mmHg 68%
    18:00 +24°C° 0,4 mm 3 m/S 729 mmHg 72%
    19:00 +23°C° 0,4 mm 2 m/S 729 mmHg 76%
    20:00 +20°C° 0,4 mm 2 m/S 729 mmHg 81%
    21:00 +19°C° 0 mm 2 m/S 729 mmHg 81%
    22:00 +18°C° 0 mm 2 m/S 729 mmHg 82%
    23:00 +17°C° 0 mm 2 m/S 729 mmHg 82%

    übermorgen, 22 Juli, Sonntag

    Zeit Temperatur Niederschläge Wind Luftdruck Luftfeuchtigkeit
    00:00 +18°C° 0 mm 1 m/S 729 mmHg 83%
    01:00 +16°C° 0 mm 1 m/S 729 mmHg 83%
    02:00 +16°C° 0 mm 1 m/S 729 mmHg 83%
    03:00 +15°C° 0 mm 1 m/S 729 mmHg 84%
    04:00 +15°C° 0 mm 1 m/S 729 mmHg 85%
    05:00 +15°C° 0 mm 1 m/S 729 mmHg 85%
    06:00 +16°C° 0 mm 1 m/S 729 mmHg 81%
    07:00 +19°C° 0 mm 1 m/S 729 mmHg 77%
    08:00 +20°C° 0 mm 2 m/S 729 mmHg 73%
    09:00 +21°C° 0 mm 2 m/S 729 mmHg 67%
    10:00 +24°C° 0 mm 2 m/S 729 mmHg 62%
    11:00 +25°C° 0 mm 2 m/S 729 mmHg 56%
    12:00 +26°C° 0 mm 2 m/S 729 mmHg 54%
    13:00 +26°C° 0 mm 2 m/S 729 mmHg 52%
    14:00 +27°C° 0 mm 2 m/S 729 mmHg 50%
    15:00 +27°C° 0 mm 2 m/S 729 mmHg 51%
    16:00 +27°C° 0 mm 2 m/S 728 mmHg 52%
    17:00 +27°C° 0 mm 2 m/S 728 mmHg 53%
    18:00 +25°C° 0 mm 1 m/S 728 mmHg 59%
    19:00 +24°C° 0 mm 1 m/S 728 mmHg 65%
    20:00 +22°C° 0 mm 1 m/S 728 mmHg 71%
    21:00 +21°C° 0 mm 1 m/S 728 mmHg 75%
    22:00 +20°C° 0 mm 1 m/S 728 mmHg 79%
    23:00 +19°C° 0 mm 1 m/S 728 mmHg 82%

    23 Juli, Montag

    Zeit Temperatur Niederschläge Wind Luftdruck Luftfeuchtigkeit
    00:00 +19°C° 0 mm 1 m/S 728 mmHg 84%
    01:00 +19°C° 0 mm 1 m/S 728 mmHg 86%
    02:00 +18°C° 0 mm 1 m/S 728 mmHg 87%
    03:00 +18°C° 0 mm 1 m/S 728 mmHg 89%
    04:00 +16°C° 0 mm 1 m/S 728 mmHg 90%
    05:00 +16°C° 0 mm 1 m/S 728 mmHg 92%
    06:00 +19°C° 0 mm 1 m/S 728 mmHg 86%
    07:00 +21°C° 0 mm 1 m/S 728 mmHg 81%
    08:00 +22°C° 0 mm 1 m/S 729 mmHg 76%
    09:00 +24°C° 0,3 mm 1 m/S 729 mmHg 71%
    10:00 +25°C° 0,3 mm 2 m/S 729 mmHg 67%
    11:00 +26°C° 0,3 mm 2 m/S 729 mmHg 63%
    12:00 +26°C° 0,5 mm 2 m/S 729 mmHg 63%
    13:00 +26°C° 0,5 mm 2 m/S 728 mmHg 64%
    14:00 +26°C° 0,5 mm 3 m/S 728 mmHg 65%
    15:00 +26°C° 0,5 mm 3 m/S 728 mmHg 67%
    16:00 +26°C° 0,5 mm 3 m/S 728 mmHg 69%
    17:00 +25°C° 0,5 mm 3 m/S 728 mmHg 70%
    18:00 +24°C° 0,1 mm 2 m/S 728 mmHg 73%
    19:00 +23°C° 0,1 mm 2 m/S 728 mmHg 77%
    20:00 +21°C° 0,1 mm 2 m/S 728 mmHg 80%
    21:00 +20°C° 0,2 mm 2 m/S 728 mmHg 80%
    22:00 +20°C° 0,2 mm 2 m/S 729 mmHg 80%
    23:00 +19°C° 0,2 mm 2 m/S 729 mmHg 80%

    24 Juli, Dienstag

    Zeit Temperatur Niederschläge Wind Luftdruck Luftfeuchtigkeit
    00:00 +19°C° 0 mm 2 m/S 729 mmHg 79%
    01:00 +18°C° 0 mm 2 m/S 729 mmHg 79%
    02:00 +18°C° 0 mm 2 m/S 729 mmHg 79%
    03:00 +18°C° 0,2 mm 2 m/S 729 mmHg 81%
    04:00 +18°C° 0,2 mm 1 m/S 729 mmHg 83%
    05:00 +18°C° 0,2 mm 1 m/S 729 mmHg 85%
    06:00 +19°C° 0,1 mm 1 m/S 729 mmHg 83%
    07:00 +20°C° 0,1 mm 1 m/S 729 mmHg 80%
    08:00 +21°C° 0,1 mm 1 m/S 729 mmHg 77%
    09:00 +22°C° 0 mm 1 m/S 730 mmHg 71%
    10:00 +24°C° 0 mm 1 m/S 730 mmHg 64%
    11:00 +25°C° 0 mm 2 m/S 730 mmHg 58%
    12:00 +25°C° 0,1 mm 2 m/S 730 mmHg 56%
    13:00 +26°C° 0,1 mm 2 m/S 730 mmHg 54%
    14:00 +26°C° 0,1 mm 2 m/S 730 mmHg 53%
    15:00 +26°C° 0,1 mm 2 m/S 729 mmHg 55%
    16:00 +26°C° 0,1 mm 2 m/S 729 mmHg 56%
    17:00 +25°C° 0,1 mm 3 m/S 729 mmHg 58%
    18:00 +24°C° 0 mm 2 m/S 729 mmHg 65%
    19:00 +21°C° 0 mm 2 m/S 729 mmHg 72%
    20:00 +19°C° 0 mm 2 m/S 729 mmHg 79%
    21:00 +18°C° 0 mm 2 m/S 729 mmHg 82%
    22:00 +17°C° 0 mm 2 m/S 729 mmHg 86%
    23:00 +16°C° 0 mm 1 m/S 729 mmHg 89%

    25 Juli, Mittwoch

    Zeit Temperatur Niederschläge Wind Luftdruck Luftfeuchtigkeit
    00:00 +16°C° 0 mm 1 m/S 729 mmHg 90%
    01:00 +15°C° 0 mm 1 m/S 729 mmHg 91%
    02:00 +15°C° 0 mm 1 m/S 729 mmHg 92%
    03:00 +15°C° 0 mm 1 m/S 729 mmHg 92%
    04:00 +14°C° 0 mm 1 m/S 729 mmHg 92%
    05:00 +14°C° 0 mm 1 m/S 729 mmHg 93%
    06:00 +16°C° 0 mm 1 m/S 729 mmHg 87%
    07:00 +19°C° 0 mm 1 m/S 730 mmHg 82%
    08:00 +20°C° 0 mm 1 m/S 730 mmHg 77%
    09:00 +22°C° 0 mm 1 m/S 730 mmHg 72%
    10:00 +23°C° 0 mm 1 m/S 730 mmHg 67%
    11:00 +25°C° 0 mm 1 m/S 730 mmHg 62%
    12:00 +25°C° 0,2 mm 1 m/S 730 mmHg 61%
    13:00 +26°C° 0,2 mm 1 m/S 730 mmHg 59%
    14:00 +27°C° 0,2 mm 1 m/S 730 mmHg 57%
    15:00 +26°C° 0,5 mm 1 m/S 730 mmHg 60%
    16:00 +26°C° 0,5 mm 2 m/S 729 mmHg 62%
    17:00 +26°C° 0,5 mm 2 m/S 729 mmHg 65%
    18:00 +24°C° 0,4 mm 2 m/S 729 mmHg 71%
    19:00 +23°C° 0,4 mm 1 m/S 729 mmHg 77%
    20:00 +21°C° 0,4 mm 1 m/S 729 mmHg 84%
    21:00 +20°C° 0 mm 1 m/S 729 mmHg 86%
    22:00 +20°C° 0 mm 1 m/S 729 mmHg 88%
    23:00 +17°C° 0 mm 0 m/S 729 mmHg 90%
    Mehr zeigen